Location: Newark
(53.3333°N, 83.7500°E)
Time: 18:07:57
(UTC+00:00)

SR - Pass Details

Date: 18 November 2019
Orbit: 573 x 882 km, 66.7° (Epoch: 07 December)

Event Time Altitude Azimuth Distance (km) Brightness Sun altitude
Rises 14:50:01 0° 308° (NW) 3,430 ? -38.8°
Reaches altitude 10° 14:52:56 10° 321° (NW) 2,521 ? -39.2°
Enters shadow 14:55:02 19° 339° (NNW) 1,993 ? -39.5°
